Location: Ailly
(50.0793°N, 1.9944°E)
Time: 21:31:56
(UTC+00:00)

Cosmos 1943 Rocket - Pass Details

Date: 15 January 2026
Orbit: 811 x 842 km, 71.0° (Epoch: 17 February)

Event Time Altitude Azimuth Distance (km) Brightness Sun altitude
Rises 07:03:47 0° 241° (WSW) 3,328 4.9 -6.6°
Reaches altitude 10° 07:06:29 10° 252° (WSW) 2,399 4.1 -6.2°
Maximum altitude 07:11:19 31° 314° (NW) 1,402 2.9 -5.5°
Drops below altitude 10° 07:16:10 10° 16° (NNE) 2,412 4.5 -4.8°
Sets 07:18:54 0° 27° (NNE) 3,350 5.3 -4.4°
